Regional Weather Roundup
Issued by NWS

Home | Current Version | Previous Version | Text Only | Print | Product List | Glossary On
Versions: 1 2 3 4 5 6 7 8 9 10 11 12 13 14 15 16 17 18 19 20 21 22 23 24 25 26 27 28 29 30 31 32 33 34 35 36 37 38 39 40 41 42 43 44 45 46 47 48 49 50
000
ASUS44 KLIX 052011
RWRLA
LOUISIANA WEATHER ROUNDUP
NATIONAL WEATHER SERVICE NEW ORLEANS LA
300 PM CDT SUN JUL 05 2015

NOTE: "FAIR" INDICATES FEW OR NO CLOUDS BELOW 12,000 FEET WITH NO
      SIGNIFICANT WEATHER AND/OR OBSTRUCTIONS TO VISIBILITY.
      SKY/WX - SKY CONDITION AND SIGNIFICANT WEATHER.
      TMP - AIR TEMPERATURE.    DP   - DEWPOINT TEMPERATURE.
      RH  - RELATIVE HUMIDITY.  PRES - PRESSURE.
      HX  - HEAT INDEX.         WCI  - WIND CHILL INDEX.

*  THESE STATIONS ARE NOT NWS OR FAA STATIONS AND ARE NOT UNDER
   NWS QUALITY CONTROL.

LAZ040-048-061>063-065-066-069-052100-
SOUTHEAST LOUISIANA

CITY           SKY/WX    TMP DP  RH WIND       PRES   REMARKS
N.O. AUDUBON     N/A     93  79  63 MISG        N/A  HX 110
N.O. INTL ARPT PTSUNNY   92  73  53 SW10      30.07F HX 100
N.O. LAKEFRONT   N/A     93  76  57 NW9       30.07F HX 105
N.O. DOWNTOWN* FAIR      93  75  55 S9        30.08F HX 104
RESERVE*       NOT AVBL
SLIDELL        MOSUNNY   91  74  57 W8        30.09S HX 100
BATON ROUGE    TSTM      76  71  85 W15       30.07F
BOOTHVILLE     CLOUDY    88  76  67 SW9       30.11F HX  99
BELLE CHASSE   PTSUNNY   90  72  55 SW10      30.07F HX  97
BOGALUSA*        N/A     92  72  51 W3        30.11R HX  99
GALLIANO*      MOCLDY    91  75  59 MISG      30.09F HX 102
NEW ROADS*     FAIR     N/A N/A N/A S5        30.07S THUNDER
GONZALES*      FAIR      91  76  62 SW8       30.06F HX 102
HAMMOND*       SUNNY     91  70  49 CALM      30.08F HX  97
HOUMA*         NOT AVBL
PORT FOURCHON* PTCLDY    88  75  66 SW12      30.11F HX  97

$$

LAZ041-044-053-054-052100-
SOUTHWEST LOUISIANA

CITY           SKY/WX    TMP DP  RH WIND       PRES   REMARKS
LAKE CHARLES   CLOUDY    85  76  74 SW7       30.07F
LAFAYETTE      CLOUDY    89  75  63 SW13G21   30.06F HX  99
PATTERSON      PTSUNNY   90  75  62 SW10      30.09F HX 100
SALT POINT       N/A     89  78  70 MISG      30.07F HX 103
NEW IBERIA     NOT AVBL
CHENAULT AIRPK SUNNY     84  75  74 SW8       30.08

$$

LAZ027-028-052100-
CENTRAL LOUISIANA

CITY           SKY/WX    TMP DP  RH WIND       PRES   REMARKS
FORT POLK      PTSUNNY   82  72  71 S8        30.05F
ALEXANDRIA INT TSTM      71  69  93 SE13      30.07R
ALEXANDRIA     TSTM      74  67  78 SW12G24   30.10R

$$

LAZ001-002-052100-
NORTHWEST LOUISIANA

CITY           SKY/WX    TMP DP  RH WIND       PRES   REMARKS
SHREVEPORT     MOSUNNY   89  73  59 VRB7      30.02F HX  97
BARKSDALE AFB  PTSUNNY   91  73  55 SW12      30.02F HX  98
DTN SHREVEPORT MOSUNNY   89  73  59 SW14G21   30.02F HX  97

$$

LAZ014-016-052100-
NORTHEAST LOUISIANA

CITY           SKY/WX    TMP DP  RH WIND       PRES   REMARKS
MONROE         TSTM      71  69  93 E13G22    30.11F FOG
TALLULAH       CLOUDY    77  69  76 CALM      30.12F

$$




USA.gov is the U.S. government's official web portal to all federal, state and local government web resources and services.